User: anonymous   Login
Location: Unspecified
(0.0000°N, 0.0000°E)
Time: 20:16:36
(UTC+00:00)
Language:

STARLINK-34888 - Orbit

View from above orbital plane
View from above orbital plane
View from above satellite
View from above satellite

Ground track
Ground track

The orbit is defined by the following mean orbital elements,

1 65471U          26145.63468094 +.00000000 +00000-0 +21093-2 0 00001
2 65471  53.1593 260.8232 0004454  72.0296 288.1190 15.30424157    08
Epoch (UTC): 25 May 2026 15:13:56
Eccentricity: 0.0004454
inclination: 53.1593°
perigee height: 471 km
apogee height: 478 km
right ascension of ascending node: 260.8232°
argument of perigee: 72.0296°
revolutions per day: 15.30424157
mean anomaly at epoch: 288.1190°

The dashed part of the orbit path shows where the satellite is in the earth's shadow,  

DLR